If you wish to contribute or participate in the discussions about articles you are invited to join SKYbrary as a registered user

 Actions

Aswan International Airport

From SKYbrary Wiki

HESN
Airport
ICAO: HESN – IATA: ASW
Summary
Name Aswan International Airport
Region Africa
Territory Egypt EG.gif
Location Aswan, Aswan
Serving Aswan
Elevation 201.778 m
662 ft
662 ft201.778 m
Type medium airport
Coordinates 23° 57' 51.68" N, 32° 49' 11.91" E
Runways
Designator Length Width Surface ROPS
17/35 3402 m11,161.417 ft
45 m147.638 ft
ASP yes/yes


METAR
Observation HESN 170700Z 04006KT CAVOK 35/08 Q1012 NOSIG
Station Asswan
Date/Time 17 June 2019 07:00:00
Wind direction 40°
Wind speed 06 kts
Lowest cloud amount clouds and visibility OK
Temperature 35°C
Dew point 8°C
Humidity 19%
QNH 1012 hPa
Weather condition n/a

Maps

Terrain

Loading map...

Airport Layout

Loading map...


Accidents & Serious Incidents at or in vicinity of HESN

None on SKYbrary